This is the latest recevied weather packets stored in our database for station/object KD8DLP-13. If no packets are shown the sender has not sent any weather packets the latest 10 day(s).
| Time | Temp. | Humidity | Pressure | Rain* | Wind** | Luminosity | Snow |
|---|---|---|---|---|---|---|---|
| 1777944053 | 20.56° C | 61% | 997.8 hPa | 0 mm | - | 0 W/m² | - |
| 1777943749 | 20.56° C | 60% | 997.7 hPa | 0 mm | - | 0 W/m² | - |
| 1777943447 | 20.56° C | 59% | 998 hPa | 0 mm | - | 0 W/m² | - |
| 1777943142 | 21.11° C | 59% | 997.6 hPa | 0 mm | - | 0 W/m² | - |
| 1777942838 | 21.11° C | 58% | 997.6 hPa | 0 mm | - | 0 W/m² | - |
| 1777942535 | 21.11° C | 57% | 997.8 hPa | 0 mm | - | 1 W/m² | - |
| 1777942233 | 21.11° C | 56% | 997.8 hPa | 0 mm | - | 1 W/m² | - |
| 1777941929 | 21.67° C | 54% | 997.8 hPa | 0 mm | - | 3 W/m² | - |
| 1777941626 | 21.67° C | 52% | 997.9 hPa | 0 mm | - | 5 W/m² | - |
| 1777941323 | 21.67° C | 48% | 997.6 hPa | 0 mm | - | 7 W/m² | - |
| 1777941021 | 22.22° C | 46% | 997.4 hPa | 0 mm | - | 9 W/m² | - |
| 1777940720 | 22.22° C | 44% | 997.7 hPa | 0 mm | - | 12 W/m² | - |
| 1777940415 | 22.22° C | 41% | 997.5 hPa | 0 mm | - | 15 W/m² | - |
| 1777940112 | 22.78° C | 41% | 997.3 hPa | 0 mm | - | 18 W/m² | - |
| 1777939809 | 22.78° C | 40% | 997 hPa | 0 mm | - | 20 W/m² | - |
| 1777939506 | 22.78° C | 40% | 997 hPa | 0 mm | - | 23 W/m² | - |
| 1777939204 | 22.78° C | 40% | 997.2 hPa | 0 mm | - | 25 W/m² | - |
| 1777938900 | 22.78° C | 40% | 997 hPa | 0 mm | - | 28 W/m² | - |
| 1777938596 | 22.78° C | 40% | 997.2 hPa | 0 mm | - | 31 W/m² | - |
| 1777938294 | 22.78° C | 41% | 997.3 hPa | 0 mm | - | 33 W/m² | - |
| 1777937990 | 23.33° C | 40% | 997.4 hPa | 0 mm | - | 36 W/m² | - |
| 1777937686 | 23.33° C | 40% | 997.7 hPa | 0 mm | - | 38 W/m² | - |
| 1777937383 | 23.33° C | 39% | 997.5 hPa | 0 mm | - | 39 W/m² | - |
| 1777937080 | 23.33° C | 39% | 997.8 hPa | 0 mm | - | 42 W/m² | - |
| 1777936778 | 23.33° C | 40% | 998 hPa | 0 mm | - | 46 W/m² | - |
* Rain latest hour (hover to see other rain measurements)
** Current wind speed in m/s (hover to see current wind gust speed)